Regional Weather Roundup
Issued by NWS Sterling, VA

Home | Current Version | Previous Version | Text Only | Print | Product List | Glossary Off
Versions: 1 2 3 4 5 6 7 8 9 10 11 12 13 14 15 16 17 18 19 20 21 22 23 24 25 26 27 28 29 30 31 32 33 34 35 36 37 38 39 40 41 42 43 44 45 46 47 48 49 50

243
ASUS41 KLWX 190711
RWRLWX

REGIONAL WEATHER ROUNDUP
NATIONAL WEATHER SERVICE BALTIMORE MD/WASHINGTON DC
200 AM EST FRI JAN 19 2018

Note: "FAIR" indicates few or no clouds below 12,000 feet
with no significant weather and/or obstructions to visibility.
 TC=TEMPERATURE CELSIUS

 * =Non NWS site. Station does not report precipitation (e.g. rain,
    snow, etc.), thunder, or fog.

DCZ001-MDZ009-015-VAZ040>042-051-053>054-190800-
WASHINGTON METRO

CITY           SKY/WX    TMP DP  RH WIND       PRES   REMARKS
WASHINGTON NAT FAIR      29  22  75 S8        30.12F WCI  21
DULLES         FAIR      25  14  63 S5        30.10F WCI  19
ANDREWS AFB    FAIR      26  13  57 SW6       30.10S WCI  20
FT BELVOIR     FAIR      21  14  75 CALM      30.12F
COLLEGE PARK*  FAIR      22  16  76 CALM      30.11S
LEESBURG*      FAIR      32  12  43 S7        30.10F WCI  26
MANASSAS*      FAIR      17  13  84 CALM      30.12F
GAITHERSBURG*  FAIR      23  14  68 CALM      30.09S

$$

MDZ006>007-011-014-190800-
BALTIMORE METRO

CITY           SKY/WX    TMP DP  RH WIND       PRES   REMARKS
BWI AIRPORT    FAIR      25  11  55 SW3       30.09F
MD SCIENCE CTR   N/A     32  10  40 MISG      30.09F
MARTIN STATE   FAIR      25  19  80 CALM      30.11F
ANNAPOLIS      FAIR      29  19  66 CALM      30.11S
FORT MEADE*    FAIR      19  16  86 CALM      30.13S

$$

MDZ012-015-019>023-190800-
MARYLAND EASTERN SHORE

CITY           SKY/WX    TMP DP  RH WIND       PRES   REMARKS
OCEAN CITY     FAIR      27  18  69 W3        30.13F
SALISBURY      FAIR      29  20  69 W8        30.12F WCI  21
BAY BRIDGE AP* FAIR      28  14  54 CALM      30.11S
CAMBRIDGE*     CLEAR     27  16  63 SW5       30.13S WCI  21
EASTON*        FAIR      28  17  64 CALM      30.15S

$$

MDZ017>025-190800-
SOUTHERN MARYLAND

CITY           SKY/WX    TMP DP  RH WIND       PRES   REMARKS
PATUXENT RIVER NOT AVBL
ST INIGOES     FAIR      25  18  74 CALM      30.13F
LEONARDTOWN*   FAIR      30  16  55 CALM      30.14F

$$

MDZ003>005-190800-
NORTH CENTRAL MARYLAND

CITY           SKY/WX    TMP DP  RH WIND       PRES   REMARKS
FREDERICK*     FAIR      27  14  59 CALM      30.11S
HAGERSTOWN APT FAIR      35  12  38 SW9       30.06S WCI  28
WESTMINSTER*   FAIR      32  16  51 SW5       30.05R WCI  27

$$

MDZ501>502-190800-
WESTERN MARYLAND

CITY           SKY/WX    TMP DP  RH WIND       PRES   REMARKS
OAKLAND*       FAIR      21   7  53 SW16G26   29.99F WCI   7
CUMBERLAND*    FAIR      32  10  40 SE5G20    30.14S WCI  27

$$

VAZ025>031-190800-
SHENANDOAH VALLEY

CITY           SKY/WX    TMP DP  RH WIND       PRES   REMARKS
WINCHESTER*    FAIR      37   9  30 W7        30.08F WCI  32
FRONT ROYAL*   FAIR      37   9  30 SE5       30.07F WCI  34
LURAY*         FAIR      32  12  43 SW6       30.09S WCI  26
NEW MARKET*    FAIR      24  13  63 CALM      30.08F
STAUNTON*      FAIR      28   7  41 S5        30.12F WCI  22
WAYNESBORO*    FAIR      33   1  24 SW9       30.10F WCI  26

$$

WVZ021-048>050-054>055-190800-
EASTERN WEST VIRGINIA PANHANDLE

CITY           SKY/WX    TMP DP  RH WIND       PRES   REMARKS
MARTINSBURG    FAIR      35  12  38 W16       30.06F WCI  25
PETERSBURG*    FAIR      36   7  29 S5        30.10F WCI  32

$$

VAZ036>039-050-190800-
CENTRAL FOOTHILLS

CITY           SKY/WX    TMP DP  RH WIND       PRES   REMARKS
CHARLOTTESVILL FAIR      30  10  43 S7        30.09F WCI  23
CULPEPER*      FAIR      19  12  75 CALM      30.12S
ORANGE*        FAIR      27  14  59 CALM      30.10F
GORDONSVILLE*  FAIR      28  13  54 SW3       30.10F
WARRENTON*     FAIR      17  11  78 CALM      30.10F

$$

VAZ055>057-190800-
NORTH AND CENTRAL PIEDMONT

CITY           SKY/WX    TMP DP  RH WIND       PRES   REMARKS
FREDERICKSBRG* FAIR      22  17  81 CALM      30.12F
STAFFORD*      FAIR      22  16  79 CALM      30.15F

$$

NCZ024-NYZ072-PAZ021-071-VAZ022-071-190800-
OTHER REGIONAL OBSERVATIONS

CITY           SKY/WX    TMP DP  RH WIND       PRES   REMARKS
NEW YORK CITY  FAIR      25  12  58 W5        30.06S WCI  19
PHILADELPHIA   FAIR      24  15  68 CALM      30.08F
PITTSBURGH     FAIR      24  10  55 SW9       30.08S WCI  14
ROANOKE        FAIR      32   7  35 W3        30.18F
RICHMOND       FAIR      30  14  51 S3        30.14F
RALEIGH        FAIR      24  21  88 SW3       30.21F

$$

ANZ530>537-190800-
MARINE OBSERVATIONS

STATION/POSITION TIME  TEMP    WIND        PRES
                       AIR SEA DIR/SP/G
                 (UTC) (F)     (DEG/KT/KT) (MB)
THOMAS PT LIGHT  0700   33 32  240/  4/  4   N/A
BALT KEY BRIDGE  0642          220/  5/  5 1019.3F
COVE POINT       0642          270/  9/ 11 1020.8F
LEWISETTA        0642      31  230/  1/  2 1020.6F
SOLOMONS ISLAND  0642      34  220/  4/  6 1020.0F
PINEY POINT      0642          210/  4/  4   N/A

$$





USA.gov is the U.S. government's official web portal to all federal, state and local government web resources and services.